Southern Pines, NC

8:34 AM EST on November 17, 2019 (GMT -0500)
Moore County

Weather History for KSOP - October, 2019

Change the Weather History Date:

Wednesday, October 23, 2019

  Actual Average Record
Temperature  
Mean Temperature 57 °F -  
Max Temperature 69 °F 67 °F 84 °F (2007)
Min Temperature 44 °F 45 °F 33 °F (1997)
Degree Days  
Heating Degree Days 8    
Growing Degree Days 7 (Base 50)    
Moisture  
Dew Point 44 °F    
Average Humidity 67    
Maximum Humidity 93    
Minimum Humidity 33    
Precipitation  
Precipitation 0.00 in - - ()
Sea Level Pressure  
Sea Level Pressure 30.13 in    
Wind  
Wind Speed 3 mph (WNW)    
Max Wind Speed 8 mph    
Max Gust Speed -    
Visibility 10 miles    
Events      
Averages and records for this station are not official NWS values.
T = Trace of Precipitation, MM = Missing Value Source: NWS Daily Summary

Daily Weather History Graph

Daily Weather History Graph

Search for Another Location

Airport or City:

Astronomy

Oct. 23, 2019 Rise Set
Actual Time 7:30 AM EDT 6:32 PM EDT
Civil Twilight 7:04 AM EDT 6:58 PM EDT
Nautical Twilight 6:34 AM EDT 7:28 PM EDT
Astronomical Twilight 6:05 AM EDT 7:57 PM EDT
Moon 2:03 AM EDT (10/23) 4:07 PM EDT (10/23)
Length of Visible Light 11h 54m
Length of Day
11h 02m
Waning Crescent, 27% of the Moon is Illuminated
Oct 23
Waning Crescent
Oct 27
New
Nov 4
First Quarter
Nov 12
Full
Nov 19
Last Quarter

Hourly Weather History & Observations

Time (EDT) Temp. Dew Point Humidity Pressure Visibility Wind Dir Wind Speed Gust Speed Precip Events Conditions
12:56 AM 55.9 °F 52.0 °F 87% 29.96 in 10.0 mi Calm Calm - N/A   Partly Cloudy
1:56 AM 54.0 °F 52.0 °F 93% 29.98 in 10.0 mi West 3.5 mph - N/A   Mostly Cloudy
2:56 AM 55.0 °F 50.0 °F 83% 30.00 in 10.0 mi West 3.5 mph - N/A   Mostly Cloudy
3:56 AM 53.1 °F 46.9 °F 80% 30.00 in 10.0 mi West 3.5 mph - N/A   Clear
4:56 AM 51.1 °F 46.0 °F 83% 30.01 in 10.0 mi West 3.5 mph - N/A   Clear
5:56 AM 48.0 °F 45.0 °F 89% 30.05 in 10.0 mi Calm Calm - N/A   Clear
6:56 AM 48.0 °F 45.0 °F 89% 30.08 in 10.0 mi NW 3.5 mph - N/A   Clear
7:56 AM 50.0 °F 44.1 °F 80% 30.11 in 10.0 mi NW 4.6 mph - N/A   Clear
8:56 AM 55.0 °F 45.0 °F 69% 30.14 in 10.0 mi Variable 3.5 mph - N/A   Clear
9:56 AM 59.0 °F 44.1 °F 58% 30.16 in 10.0 mi NNW 6.9 mph - N/A   Clear
10:56 AM 63.0 °F 43.0 °F 48% 30.17 in 10.0 mi NNE 8.1 mph - N/A   Clear
11:56 AM 66.0 °F 42.1 °F 42% 30.17 in 10.0 mi Variable 4.6 mph - N/A   Clear
12:56 PM 66.9 °F 39.9 °F 37% 30.17 in 10.0 mi NNE 8.1 mph - N/A   Clear
1:56 PM 66.9 °F 39.0 °F 36% 30.14 in 10.0 mi Variable 3.5 mph - N/A   Clear
2:56 PM 68.0 °F 37.9 °F 33% 30.14 in 10.0 mi NNW 5.8 mph - N/A   Clear
3:56 PM 69.1 °F 39.0 °F 33% 30.15 in 10.0 mi NW 6.9 mph - N/A   Clear
4:56 PM 68.0 °F 39.9 °F 36% 30.17 in 10.0 mi WNW 4.6 mph - N/A   Clear
5:56 PM 64.9 °F 42.1 °F 43% 30.18 in 10.0 mi WNW 4.6 mph - N/A   Clear
6:56 PM 55.0 °F 44.1 °F 67% 30.20 in 10.0 mi Calm Calm - N/A   Clear
7:56 PM 51.1 °F 42.1 °F 71% 30.23 in 10.0 mi Calm Calm - N/A   Clear
8:56 PM 48.0 °F 44.1 °F 86% 30.24 in 10.0 mi SW 3.5 mph - N/A   Clear
9:56 PM 46.9 °F 44.1 °F 90% 30.25 in 10.0 mi Calm Calm - N/A   Clear
10:56 PM 45.0 °F 43.0 °F 93% 30.26 in 10.0 mi Calm Calm - N/A   Clear
11:56 PM 44.1 °F 42.1 °F 93% 30.27 in 10.0 mi Calm Calm - N/A   Clear